Location: *
(58.7167°N, 26.1833°E)
Time: 18:18:02
(UTC+00:00)

Cosmos 1300 Rocket - Pass Details

Date: 25 August 2019
Orbit: 602 x 626 km, 82.5° (Epoch: 15 October)

Event Time Altitude Azimuth Distance (km) Brightness Sun altitude
Exits shadow 20:07:57 25° 177° (S) 1,264 4.6 -15.9°
Maximum altitude 20:10:27 69° 100° (E) 663 3.5 -16.0°
Drops below altitude 10° 20:14:48 10° 17° (NNE) 1,979 6.7 -16.3°
Sets 20:17:02 0° 15° (NNE) 2,885 7.7 -16.5°
